EW8749 Weather Reports


Display with metric or nautical units.
time (UTC)temp
F
wind
direction
speed
MPH
gust
MPH
rain 1hr
in
rain 24hr
in
rain mn
in
humidity
%
barometer
mb
20260902194552 53 271 1.0 4.0 0.02 0.16 0.09 92 1009.9
20260902193045 53 211 0.0 0.0 0.03 0.16 0.09 92 1010.0
20260902191544 53 346 1.0 4.0 0.03 0.16 0.09 92 1010.0
20260902190045 53 313 0.0 0.0 0.01 0.13 0.06 92 1009.5
20260902184543 53 350 0.0 0.0 0.03 0.13 0.06 92 1009.2
20260902183040 53 252 0.0 0.0 0.02 0.13 0.06 91 1009.3
20260902181539 53 317 0.0 0.0 0.03 0.13 0.06 91 1009.5
20260902180037 53 260 0.0 0.0 0.03 0.13 0.06 91 1009.7
20260902174534 53 290 0.0 0.0 0.01 0.10 0.03 90 1009.7
20260902173032 54 295 0.0 5.0 0.02 0.10 0.03 90 1009.5
20260902171531 54 291 3.0 9.0 0.01 0.09 0.02 90 1009.5
20260902170029 54 319 2.0 5.0 0.01 0.09 0.02 91 1009.8
20260902164526 54 316 0.0 6.0 0.02 0.09 0.02 91 1010.7
20260902163024 54 310 0.0 4.0 0.01 0.09 0.02 91 1011.0
20260902161533 54 329 0.0 3.0 0.01 0.09 0.02 91 1011.2
20260902160022 54 303 0.0 5.0 0.02 0.09 0.02 91 1011.3
20260902154519 54 268 1.0 5.0 0.01 0.08 0.01 91 1011.7
20260902153018 54 232 0.0 5.0 0.01 0.08 0.01 91 1012.1
20260902151525 54 321 0.0 0.0 0.01 0.08 0.01 91 1011.6
20260902150018 54 296 0.0 0.0 0.00 0.07 0.00 91 1011.8
20260902144515 54 288 0.0 0.0 0.01 0.07 0.00 91 1011.7
20260902143012 54 273 0.0 0.0 0.02 0.07 0.00 90 1011.9
20260902141510 55 284 0.0 4.0 0.04 0.07 0.00 90 1012.5
20260902140012 55 268 0.0 4.0 0.06 0.07 0.07 90 1012.8
20260902134506 55 254 0.0 5.0 0.06 0.06 0.06 89 1013.2
20260902133002 56 294 3.0 10.0 0.05 0.05 0.05 87 1013.7
20260902130001 56 237 0.0 6.0 0.02 0.02 0.02 87 1013.7
20260902124603 56 308 0.0 5.0 0.00 0.00 0.00 84 1013.8
20260902123103 56 324 0.0 0.0 0.00 0.00 0.00 83 1013.4
20260902121601 56 313 0.0 6.0 0.00 0.00 0.00 82 1013.5
20260902120100 56 254 0.0 0.0 0.00 0.00 0.00 82 1013.7
20260902114556 56 276 0.0 7.0 0.00 0.00 0.00 82 1013.7
20260902113058 56 286 0.0 4.0 0.00 0.00 0.00 82 1013.9
20260902111555 56 242 0.0 0.0 0.00 0.00 0.00 83 1013.8
20260902110101 57 274 0.0 0.0 0.00 0.00 0.00 83 1014.0
20260902104616 56 302 0.0 0.0 0.00 0.00 0.00 84 1014.2
20260902103053 56 276 0.0 0.0 0.00 0.00 0.00 84 1014.1
20260902101552 57 296 0.0 0.0 0.00 0.00 0.00 83 1014.4
20260902100109 57 310 0.0 0.0 0.00 0.00 0.00 82 1014.1
20260902094552 57 337 0.0 0.0 0.00 0.00 0.00 81 1014.5
20260902093100 58 343 0.0 3.0 0.00 0.00 0.00 80 1014.1
20260902091551 57 263 0.0 0.0 0.00 0.00 0.00 80 1014.7
20260902090050 58 332 0.0 0.0 0.00 0.00 0.00 79 1014.6
20260902084555 58 303 0.0 0.0 0.00 0.00 0.00 76 1014.5
20260902083102 59 261 0.0 0.0 0.00 0.00 0.00 75 1014.3
20260902081609 59 290 0.0 0.0 0.00 0.00 0.00 73 1014.3
20260902080056 60 309 0.0 0.0 0.00 0.00 0.00 71 1014.2
20260902074548 61 253 0.0 0.0 0.00 0.00 0.00 68 1014.1
20260902073047 62 276 0.0 0.0 0.00 0.00 0.00 67 1014.2
20260902071558 62 229 0.0 0.0 0.00 0.00 0.00 66 1014.2
20260902070046 62 287 1.0 9.0 0.00 0.00 0.00 65 1014.2
20260902064549 63 272 2.0 12.0 0.00 0.00 0.00 63 1014.1
20260902063108 63 242 3.0 15.0 0.00 0.00 0.00 62 1014.0
20260902061551 64 275 2.0 9.0 0.00 0.00 0.00 59 1014.0
20260902060145 64 235 4.0 13.0 0.00 0.00 0.00 60 1013.9
20260902054544 64 228 3.0 16.0 0.00 0.00 0.00 59 1014.1
20260902053043 64 229 3.0 11.0 0.00 0.00 0.00 59 1014.3
20260902051545 66 270 2.0 15.0 0.00 0.00 0.00 57 1014.4
20260902050039 66 213 1.0 12.0 0.00 0.00 0.00 57 1014.4
20260902044544 65 229 0.0 14.0 0.00 0.00 0.00 58 1014.4
20260902043038 65 318 0.0 10.0 0.00 0.00 0.00 60 1014.3
20260902041540 64 220 0.0 12.0 0.00 0.00 0.00 57 1014.3
20260902040037 66 275 3.0 17.0 0.00 0.00 0.00 54 1014.3
20260902034534 66 258 1.0 11.0 0.00 0.00 0.00 57 1014.4
20260902033032 66 258 0.0 18.0 0.00 0.00 0.00 57 1014.4
20260902031539 66 241 4.0 16.0 0.00 0.00 0.00 57 1014.4
20260902030027 66 257 4.0 12.0 0.00 0.00 0.00 58 1014.9
20260902024524 65 239 5.0 19.0 0.00 0.00 0.00 62 1015.0
20260902023023 65 263 4.0 15.0 0.00 0.00 0.00 64 1015.4
20260902021530 64 232 3.0 15.0 0.00 0.00 0.00 65 1015.7
20260902020015 63 260 0.0 9.0 0.00 0.00 0.00 67 1016.0
20260902014534 63 341 0.0 8.0 0.00 0.01 0.00 66 1016.3
20260902013013 63 256 0.0 7.0 0.00 0.01 0.00 66 1016.6
20260902011511 61 293 0.0 11.0 0.00 0.01 0.00 68 1016.8
20260902010006 61 280 0.0 4.0 0.00 0.01 0.00 68 1016.9
20260902004504 61 228 0.0 1.0 0.00 0.01 0.00 69 1017.1
20260902003003 60 235 0.0 2.0 0.00 0.01 0.00 70 1017.1
20260902001557 59 299 3.0 16.0 0.00 0.01 0.00 72 1017.2
20260902000053 58 206 5.0 13.0 0.00 0.01 0.00 73 1017.3
20260901234651 58 254 4.0 11.0 0.00 0.01 0.00 74 1017.3
20260901233054 57 28 1.0 12.0 0.00 0.01 0.00 74 1017.1
20260901231549 57 281 1.0 13.0 0.00 0.01 0.00 73 1017.1
20260901230052 57 280 4.0 15.0 0.00 0.01 0.00 75 1017.0
20260901224549 56 280 2.0 9.0 0.00 0.01 0.00 76 1017.2
20260901223049 56 223 4.0 11.0 0.00 0.01 0.00 76 1017.3
20260901221602 55 293 3.0 10.0 0.00 0.01 0.00 78 1017.1
20260901220036 55 318 0.0 7.0 0.00 0.01 0.00 79 1017.0
20260901214534 54 263 0.0 11.0 0.00 0.01 0.00 80 1016.9
20260901213035 53 274 2.0 9.0 0.00 0.01 0.00 82 1016.7
20260901211537 51 258 1.0 7.0 0.00 0.01 0.00 84 1016.4
20260901210033 51 50 0.0 6.0 0.00 0.01 0.00 84 1016.6
20260901204535 51 270 1.0 6.0 0.00 0.01 0.00 84 1016.6
20260901203046 51 351 0.0 0.0 0.00 0.01 0.00 85 1016.5
20260901201542 51 296 0.0 0.0 0.00 0.01 0.00 85 1016.5
20260901200032 51 303 0.0 0.0 0.00 0.01 0.00 86 1016.4